Regional Weather Roundup
Issued by NWS State College, PA

Current Version | Previous Version | Text Only | Print | Product List | Glossary On
Versions: 1 2 3 4 5 6 7 8 9 10 11 12 13 14 15 16 17 18 19 20 21 22 23 24 25 26 27 28 29 30 31 32 33 34 35 36 37 38 39 40 41 42 43 44 45 46 47 48 49 50
000
ASUS41 KCTP 241110
RWRCTP

REGIONAL WEATHER ROUNDUP
NATIONAL WEATHER SERVICE STATE COLLEGE PA
700 AM EDT SAT JUN 24 2017

Note: "fair" indicates few or no clouds below 12,000 feet with no
significant weather and/or obstructions to visibility.

* = STATION THAT DOES NOT REPORT PRECIPITATION /E.G. RAIN...SNOW...ETC/
    THUNDER OR FOG.

PAZ002>004-007>009-013>016-020>023-029>032-241200-
WESTERN PENNSYLVANIA

CITY           SKY/WX    TMP DP  RH WIND       PRES   REMARKS
ERIE           MOSUNNY   68  60  75 SW8       29.77R
MEADVILLE      SUNNY     62  62 100 W5        29.81R
FRANKLIN*      MOSUNNY   63  59  88 W10       29.82R
NEW CASTLE     FAIR      64  63  96 W7        29.83R
BEAVER COUNTY  NOT AVBL
BUTLER*        SUNNY     64  63  94 W6        29.82R
PITTSBURGH INT MOSUNNY   65  65 100 W8        29.82R
PITTSBURGH     MOSUNNY   66  63  90 W8        29.82R
INDIANA*       CLOUDY    64  64 100 NW7G13    29.84R
LATROBE        PTSUNNY   66  66 100 W6        29.83R
WASHINGTON CO* PTSUNNY   64  63  94 W7        29.87R
$$

PAZ004>006-010>012-017>019-024>028-033>037-041-042-045-046-049>053-241200-
CENTRAL PENNSYLVANIA

CITY           SKY/WX    TMP DP  RH WIND       PRES   REMARKS
BRADFORD       SUNNY     62  61  96 W7        29.79R
DUBOIS         PTSUNNY   62  58  86 W8        29.79R
CLEARFIELD     SUNNY     65  62  90 W8        29.78R
JOHNSTOWN      CLOUDY    63  62  97 NW14G25   29.82R
ALTOONA        CLOUDY    68  63  84 NW13      29.80R
STATE COLLEGE  MOSUNNY   68  63  83 W9        29.73R
WILLIAMSPORT   CLOUDY    70  70 100 W10       29.65S
SELINSGROVE    PTSUNNY   70  68  93 CALM      29.67R
FT INDIANTOWN  MOSUNNY   71  69  92 W10G17    29.66R
CAPITAL CITY   MOSUNNY   72  67  84 W7        29.67R
HARRISBURG     MOSUNNY   71  69  93 NW8       29.66R
YORK           SUNNY     70  69  97 W7        29.68R
$$

PAZ038>040-043-044-047-048-054-055-060>062-067>071-241200-
EASTERN PENNSYLVANIA

CITY           SKY/WX    TMP DP  RH WIND       PRES   REMARKS
SCRANTON       CLOUDY    70  69  97 SW7       29.64S
MOUNT POCONO   PTSUNNY   67  66  97 NW10      29.66R
ALLENTOWN      CLOUDY    71  68  90 W6        29.62R
QUAKERTOWN*    CLOUDY    68  68 100 NW5       29.64R
READING        MOSUNNY   70  70 100 W9        29.63R
LANCASTER      CLOUDY    71  70  96 W7        29.65S
COATESVILLE    MOSUNNY   70  68  94 NW14      29.66R
POTTSTOWN      LGT RAIN  69  69 100 VRB3      29.65R
BLUE BELL      CLOUDY    68  68 100 CALM      29.63R
DOYLESTOWN     LGT RAIN  69  69 100 NW3       29.60R
WILLOW GROVE   NOT AVBL
NORTH PHILA    HVY RAIN  73  70  90 NW12G22   29.62R FOG
PHILADELPHIA   LGT RAIN  72  69  90 W7G20     29.62S
$$




USA.gov is the U.S. government's official web portal to all federal, state and local government web resources and services.